Flag for Thailand Weather past 2 weeks in Phuket, Thailand

Now
82 °F

Broken clouds.


Feels Like: 89 °F
Forecast: 84 / 87 °F
Wind: 3 mph from Southwest

Location: Phuket Airport

Current Time: Jul 25, 2014 at 6:54:41 AM

Latest Report: Jul 25, 2014 at 6:30 AM


Visibility: 6 mi

Pressure: 29.80 "Hg

Humidity: 79%

Dew point: 75 °F

Location of PhuketLocation

Historic Weather in Phuket — Graph

°F

Phuket temperature yesterday

Maximum temperature yesterday: 86 °F (at 8:30 AM)
Minimum temperature yesterday: 77 °F (at 12:00 AM)
Average temperature yesterday: 81 °F

Past Weeks' High & Low Weather Summary

 TemperatureHumidityPressure
High91 °F (Jul 20, 12:00 PM)94% (Jul 15, 4:30 AM)29.89 "Hg (Jul 15, 4:30 AM)
Low75 °F (Jul 15, 9:30 PM)49% (Jul 20, 12:30 PM)29.71 "Hg (Jul 12, 5:30 PM)
Average83 °F76%29.81 "Hg
* Reported Jul 10 5:00 AM — Jul 25 5:30 AM, Phuket, Weather by CustomWeather, © 2014

Note: Actual official high and low records may vary slightly from our data, if they occured in-between our weather recording intervals... More about our weather records

Advertising

Phuket weather history for previous 24 hours

 ConditionsComfort  
Time TempWeatherWind HumidityBarometerVisibility
5:30 AM
Jul 25
82 °FPartly cloudy.8 mph79%29.80 "Hg5 mi
5:00 AM82 °FPartly cloudy.8 mph79%29.80 "Hg5 mi
4:30 AM82 °FPartly cloudy.8 mph79%29.80 "Hg5 mi
4:00 AM82 °FPartly cloudy.12 mph79%29.80 "Hg5 mi
3:30 AM82 °FPartly cloudy.10 mph74%29.80 "Hg5 mi
3:00 AM81 °FPartly cloudy.8 mph84%29.80 "Hg5 mi
2:30 AM81 °FPartly cloudy.7 mph84%29.83 "Hg5 mi
2:00 AM79 °FPartly cloudy.6 mph84%29.83 "Hg5 mi
1:30 AM81 °FPartly cloudy.7 mph79%29.83 "Hg5 mi
1:00 AM81 °FPartly cloudy.6 mph79%29.83 "Hg5 mi
12:30 AM81 °FPartly cloudy.6 mph79%29.83 "Hg5 mi
12:00 AM79 °FPartly cloudy.3 mph84%29.86 "Hg5 mi
11:30 PM
Jul 24
81 °FPartly cloudy.7 mph79%29.86 "Hg5 mi
11:00 PM79 °FPartly cloudy.3 mph84%29.86 "Hg5 mi
10:30 PM79 °FPartly cloudy.3 mph84%29.86 "Hg5 mi
10:00 PM79 °FPartly cloudy.2 mph84%29.86 "Hg5 mi
9:30 PM79 °FPassing clouds.6 mph84%29.83 "Hg5 mi
8:30 PM79 °FPassing clouds.5 mph79%29.83 "Hg5 mi
7:30 PM77 °FPassing clouds.2 mph83%29.80 "Hg5 mi
7:00 PM79 °FPassing clouds.5 mph79%29.77 "Hg5 mi
6:30 PM79 °FPartly sunny.3 mph79%29.77 "Hg5 mi
6:00 PM79 °FPartly sunny.6 mph79%29.80 "Hg5 mi
5:30 PM79 °FPartly sunny.7 mph79%29.80 "Hg5 mi
5:00 PM79 °FPartly sunny.10 mph79%29.80 "Hg5 mi
4:30 PM79 °FLight rain. Broken clouds.5 mph84%29.80 "Hg4 mi
4:00 PM81 °FLight rain. Broken clouds.6 mph74%29.80 "Hg3 mi
3:30 PM81 °FBroken clouds.15 mph74%29.80 "Hg4 mi
3:00 PM81 °FBroken clouds.16 mph74%29.80 "Hg4 mi
2:30 PM81 °FBroken clouds.15 mph74%29.83 "Hg4 mi
2:00 PM81 °FBroken clouds.9 mph74%29.83 "Hg4 mi
1:30 PM79 °FBroken clouds.13 mph79%29.83 "Hg5 mi
1:00 PM81 °FBroken clouds.18 mph79%29.86 "Hg4 mi
12:30 PM81 °FBroken clouds.20 mph74%29.86 "Hg4 mi
12:00 PM81 °FBroken clouds.21 mph79%29.86 "Hg5 mi
11:30 AM79 °FRain. Broken clouds.29 mph84%29.89 "Hg3 mi
11:00 AM79 °FHeavy rain. Broken clouds.16 mph89%29.89 "Hg1 mi
10:30 AM86 °FBroken clouds.7 mph66%29.86 "Hg5 mi
10:00 AM86 °FBroken clouds.7 mph70%29.86 "Hg4 mi
9:30 AM86 °FBroken clouds.10 mph70%29.86 "Hg4 mi
9:00 AM86 °FBroken clouds.7 mph70%29.86 "Hg5 mi
8:30 AM86 °FBroken clouds.8 mph66%29.83 "Hg4 mi
7:30 AM84 °FBroken clouds.17 mph66%29.83 "Hg6 mi
7:00 AM84 °FBroken clouds.12 mph70%29.80 "Hg6 mi
6:30 AM82 °FBroken clouds.14 mph74%29.80 "Hg6 mi
6:00 AM82 °FPartly cloudy.14 mph70%29.77 "Hg6 mi
Weather by CustomWeather, © 2014

See weather overviewHow to use our weather pages